Terminal Aerodrome Forecast
Issued by NWS

Home | Current Version | Previous Version | Text Only | Print | Product List | Glossary On
Versions: 1 2 3 4 5 6 7 8 9 10 11 12 13 14 15 16 17 18 19 20 21 22 23 24 25 26 27 28 29 30 31 32 33 34 35 36 37 38 39 40 41 42 43 44 45 46 47 48 49 50
000
FTUS41 KCTP 020934 AAC
TAFBFD
TAF AMD
KBFD 020934Z 0210/0306 00000KT 3/4SM BR VV010
      TEMPO 0210/0211 4SM BR SCT008
     FM021100 VRB03KT 2SM BR BKN008
      TEMPO 0213/0214 4SM BR SCT008
     FM021400 29005KT 5SM BR SCT035
     FM021500 28005KT P6SM SKC=

USA.gov is the U.S. government's official web portal to all federal, state and local government web resources and services.